Wind_Speed
25 26 27 25 22 20 18 17 16 16 17 18 19 21 23 26 28 31 33 35 38 38 40 41 41 40 41 40 41 41 41 38 35 33 33 36 37 36 34 34 32 29 28
25 27 27 24 21 19 18 17 17 17 18 19 22 24 25 29 31 33 35 37 39 41 41 42 42 42 42 42 43 42 43 42 42 41 42 41 40 38 36 35 35 33 29
25 27 26 23 23 21 20 20 20 20 21 22 24 26 29 31 33 36 39 39 40 40 42 43 45 47 46 45 45 46 45 44 47 48 48 48 47 42 39 37 37 37 35
24 25 26 25 23 22 22 22 22 22 23 26 27 30 31 34 36 39 41 42 43 44 45 45 46 46 47 49 50 50 52 52 52 52 54 54 53 48 43 42 40 40 38
25 25 27 25 24 24 24 24 26 28 30 32 33 34 36 36 40 40 41 41 42 44 46 47 49 50 51 53 55 56 57 53 54 56 55 55 53 54 45 42 42 43 41
27 25 26 26 26 26 27 28 31 32 33 34 35 36 37 39 40 39 40 40 42 45 47 50 52 55 57 59 59 58 56 57 58 60 60 58 53 52 50 46 42 44 44
28 28 28 29 30 30 30 31 31 32 34 36 37 40 41 44 41 40 39 41 42 45 47 49 52 54 58 62 63 64 63 60 60 59 58 57 55 53 52 50 45 45 44
29 30 29 30 31 31 31 32 33 36 38 40 42 44 45 44 42 42 41 42 44 46 47 50 52 55 58 61 63 64 64 65 63 62 62 62 59 57 55 53 47 45 46
30 31 31 32 31 33 34 33 36 40 42 45 47 47 47 45 43 43 43 44 47 48 49 50 53 57 60 63 63 65 67 66 64 67 66 63 62 61 60 55 52 49 49
31 33 33 33 34 36 36 37 39 43 46 47 49 49 49 45 45 43 45 47 49 51 52 55 60 64 66 66 68 70 70 68 68 64 64 65 60 59 61 59 55 53 52
31 33 34 34 36 38 39 40 42 45 47 49 50 50 49 47 47 47 50 52 54 56 58 63 66 69 71 73 71 69 68 64 58 57 58 55 54 58 62 63 59 57 58
32 33 35 37 39 40 42 43 45 47 49 51 51 52 49 49 48 49 54 56 59 62 65 70 74 76 75 72 70 65 62 56 52 51 53 51 52 55 57 63 63 61 61
32 34 37 39 42 43 43 45 47 50 52 53 53 54 51 51 50 54 58 60 64 68 73 77 79 81 74 66 62 59 55 49 47 46 49 45 47 50 53 59 61 62 63
33 35 38 40 42 44 45 46 49 51 54 54 56 54 53 53 54 59 62 64 69 74 79 83 82 75 65 59 55 51 46 43 41 41 42 40 41 43 48 53 59 62 65
35 37 39 41 43 45 46 48 51 53 56 57 58 55 55 56 58 62 65 70 75 80 85 87 76 64 58 52 47 44 41 36 36 38 38 36 39 42 46 49 55 60 64
37 38 42 43 45 48 49 50 53 55 58 60 59 57 58 60 62 65 69 75 80 84 89 79 60 50 51 49 45 40 36 33 32 34 36 35 38 42 46 47 50 58 64
40 41 44 46 48 51 52 53 56 58 60 62 61 59 60 62 65 68 74 79 83 87 81 61 48 47 47 43 40 36 33 30 29 30 32 33 36 40 43 44 48 52 59
42 44 47 49 51 53 54 56 58 60 62 63 61 61 62 65 69 73 78 82 86 81 62 49 46 46 45 41 37 33 30 28 26 27 30 31 36 40 43 41 41 44 54
44 46 49 51 53 54 56 58 60 61 63 64 62 62 65 69 73 77 81 84 81 67 53 48 47 45 44 41 38 34 30 28 26 27 28 30 35 41 47 46 46 44 47
44 46 49 51 53 55 58 60 62 64 65 65 64 65 69 73 76 80 83 81 72 60 51 50 50 48 45 43 39 36 31 28 27 28 28 30 35 39 49 49 48 52 51
44 46 48 51 54 57 59 61 62 65 66 65 65 67 71 76 78 82 81 74 64 55 54 54 51 46 42 39 36 34 33 30 28 30 31 32 35 39 44 52 52 47 58
45 46 49 52 55 58 60 61 63 65 66 65 67 71 74 78 81 81 74 66 59 58 55 49 43 41 40 38 35 32 31 34 30 33 34 35 38 41 42 47 50 47 55
45 48 50 53 55 58 60 62 64 66 66 66 70 74 78 79 81 76 67 62 60 57 49 47 46 45 43 43 40 38 36 35 35 34 39 39 40 44 45 47 49 49 48
46 49 51 53 57 58 60 62 64 65 65 69 73 77 78 81 79 70 64 61 60 52 49 49 50 49 48 47 46 45 46 41 37 38 41 43 43 45 48 50 50 50 47
47 50 53 55 58 59 60 63 64 65 67 71 75 78 79 81 75 65 61 61 56 52 52 52 53 52 51 49 47 44 43 45 46 43 43 46 46 48 50 52 53 53 50
50 52 55 57 59 60 61 63 64 65 69 72 76 77 80 76 68 64 62 58 54 53 53 54 55 54 50 44 39 36 35 34 36 43 48 49 49 51 52 54 55 56 55
Wind_Direction
9 4 3 5 3 359 358 355 348 342 335 330 323 319 316 313 309 307 304 303 301 302 302 299 298 296 294 294 292 292 293 291 290 287 285 284 283 279 277 271 261 257 261
3 359 360 359 356 353 352 346 340 335 331 325 321 317 315 312 310 308 307 304 303 302 301 299 297 296 294 293 289 286 285 283 283 285 286 283 278 278 275 271 265 258 251
359 356 355 354 352 347 343 342 338 334 328 323 321 319 317 315 312 309 307 306 305 304 303 302 300 301 298 292 290 288 285 285 284 283 282 281 278 273 272 269 266 258 251
356 354 350 348 345 340 338 336 331 329 324 324 322 320 318 315 314 312 310 308 307 307 306 302 302 297 294 291 289 286 287 287 283 281 278 274 276 272 270 267 263 258 249
352 349 345 343 339 339 335 332 332 331 329 326 323 320 318 316 316 312 310 308 308 306 304 302 299 297 295 292 291 289 290 283 281 277 272 272 270 271 268 267 263 257 249
347 345 341 339 337 336 332 333 334 329 324 322 319 317 316 316 314 312 311 311 310 309 305 303 301 299 296 293 291 290 286 283 280 275 272 269 268 268 268 260 257 257 249
344 342 338 338 336 336 333 329 325 324 321 320 320 320 319 319 317 316 313 311 311 309 305 302 300 298 294 292 290 289 287 283 279 273 269 265 264 265 263 260 253 248 245
342 339 337 335 335 331 326 323 324 323 324 324 323 322 320 320 318 315 311 310 311 308 304 301 299 297 294 290 288 286 284 284 278 274 271 268 261 262 260 256 246 239 237
338 336 336 335 330 324 321 325 327 327 326 325 324 322 321 320 318 314 312 310 310 308 304 301 301 300 298 292 288 286 283 281 277 276 273 266 265 257 255 248 244 234 229
336 334 334 331 325 325 324 326 327 327 326 324 322 322 321 319 316 312 310 310 308 307 307 307 306 302 297 294 289 286 286 282 275 271 265 264 260 254 249 242 233 228 222
335 334 329 325 325 324 325 327 327 324 323 322 322 322 321 319 317 313 313 311 310 309 309 309 306 302 298 297 293 288 283 280 275 269 263 262 252 244 240 236 228 222 219
335 330 326 324 324 325 326 324 322 321 322 324 323 324 321 319 316 315 315 314 312 312 312 310 308 307 305 299 293 288 284 280 276 273 265 257 248 240 236 232 226 220 218
332 328 326 324 324 324 322 321 319 322 324 324 324 324 321 319 315 315 317 315 313 313 313 313 312 310 307 296 291 288 285 280 275 268 262 252 244 238 233 229 224 221 217
329 326 325 323 321 319 319 318 320 322 323 324 324 323 321 319 316 317 317 316 316 316 316 316 316 312 301 295 293 290 285 280 273 265 256 249 239 232 227 224 220 218 216
328 325 324 321 318 318 319 319 320 322 324 324 324 323 322 320 319 320 319 319 318 319 320 321 318 309 304 299 294 288 284 278 271 262 252 242 234 226 223 219 218 217 216
327 324 323 321 319 319 320 319 321 322 324 324 325 323 322 321 321 320 320 322 322 323 325 323 316 310 307 304 300 295 286 277 269 260 250 240 231 225 220 220 216 215 215
326 324 323 322 321 320 319 320 321 322 324 325 325 323 323 322 321 321 323 324 325 328 327 324 319 317 315 313 309 302 290 280 269 260 248 240 231 224 220 216 215 213 212
326 325 323 322 321 319 318 319 321 323 324 324 324 324 323 322 322 324 324 326 330 331 328 326 320 317 314 312 309 303 293 282 271 259 248 240 231 216 208 203 202 205 210
326 325 323 321 320 318 318 319 320 321 323 324 324 324 323 322 324 325 327 330 333 331 329 323 318 315 312 309 307 303 294 282 270 260 249 240 230 219 212 205 208 215 208
324 322 322 320 318 317 318 319 320 321 324 325 325 324 322 324 325 327 330 333 334 331 327 323 319 314 309 306 304 299 290 277 266 261 251 241 231 224 217 213 219 219 207
322 321 320 318 317 318 319 320 320 323 324 325 325 323 323 326 327 328 332 333 332 329 327 322 319 317 314 308 304 298 289 276 260 253 249 243 235 226 221 220 220 218 213
321 320 319 319 318 318 318 319 321 323 324 324 323 323 325 327 328 331 333 333 330 329 326 325 324 319 314 308 303 296 287 278 265 251 243 237 235 232 224 217 216 217 213
321 321 320 319 318 317 318 319 322 324 324 324 323 324 327 328 331 333 332 332 331 329 328 325 321 317 312 306 299 290 282 274 270 257 245 233 229 229 227 219 216 216 216
323 323 322 320 318 317 319 321 323 324 324 324 324 326 328 330 333 333 333 332 331 329 327 324 320 316 311 305 300 292 282 272 260 254 253 239 227 224 224 222 217 214 217
325 324 323 320 318 317 320 322 324 324 324 324 325 327 328 332 334 332 332 332 330 327 327 324 320 317 314 308 301 294 286 278 267 252 244 246 233 222 219 220 218 215 216
325 324 323 319 317 318 321 323 324 324 324 325 327 328 332 334 334 332 332 331 329 328 327 324 322 319 315 314 310 304 298 290 279 261 245 238 235 227 219 216 216 216 216
Height
5868 5865 5863 5861 5859 5857 5855 5853 5851 5849 5846 5844 5842 5840 5838 5835 5832 5828 5825 5823 5819 5817 5814 5811 5808 5806 5803 5801 5799 5796 5794 5792 5792 5791 5790 5790 5790 5790 5790 5790 5789 5789 5790
5867 5865 5862 5860 5859 5856 5853 5851 5849 5847 5844 5842 5840 5837 5834 5831 5827 5823 5820 5817 5814 5810 5808 5805 5802 5800 5797 5795 5793 5790 5788 5785 5783 5782 5781 5781 5782 5783 5783 5783 5784 5785 5784
5866 5863 5860 5859 5857 5854 5851 5849 5847 5844 5841 5838 5835 5832 5829 5825 5823 5819 5815 5811 5807 5803 5800 5797 5794 5792 5790 5788 5785 5783 5781 5779 5776 5774 5773 5771 5770 5776 5775 5775 5776 5779 5779
5865 5861 5859 5857 5855 5852 5849 5846 5844 5841 5837 5834 5830 5827 5824 5820 5816 5813 5808 5805 5800 5797 5793 5790 5788 5785 5782 5779 5777 5774 5772 5769 5766 5764 5762 5759 5760 5763 5765 5768 5769 5770 5774
5863 5860 5857 5855 5852 5849 5846 5843 5840 5835 5831 5828 5824 5821 5817 5814 5810 5805 5801 5797 5793 5788 5785 5781 5778 5775 5773 5769 5766 5764 5761 5759 5755 5752 5748 5749 5749 5747 5755 5758 5761 5763 5766
5862 5858 5855 5853 5849 5846 5843 5839 5834 5831 5828 5824 5820 5816 5812 5808 5803 5799 5794 5789 5785 5780 5776 5772 5768 5765 5762 5757 5754 5751 5748 5745 5741 5738 5736 5737 5736 5737 5741 5746 5751 5755 5758
5860 5856 5853 5850 5846 5842 5838 5834 5831 5828 5824 5820 5815 5810 5805 5800 5795 5790 5785 5781 5776 5771 5768 5763 5759 5754 5749 5745 5741 5738 5734 5730 5727 5723 5721 5723 5724 5726 5729 5733 5739 5745 5749
5857 5854 5851 5846 5842 5838 5834 5831 5827 5823 5817 5812 5807 5802 5797 5791 5786 5781 5777 5772 5768 5762 5757 5752 5748 5743 5737 5731 5725 5721 5717 5713 5710 5708 5704 5706 5712 5712 5713 5720 5726 5732 5738
5855 5851 5847 5843 5839 5834 5830 5825 5820 5815 5810 5805 5800 5795 5790 5784 5779 5774 5769 5763 5757 5752 5747 5741 5734 5726 5720 5714 5708 5703 5699 5694 5692 5688 5686 5684 5698 5696 5699 5705 5712 5719 5726
5852 5848 5843 5839 5835 5830 5825 5819 5814 5808 5803 5798 5794 5788 5782 5776 5771 5766 5760 5754 5747 5740 5734 5726 5719 5710 5702 5696 5688 5681 5676 5672 5669 5666 5661 5666 5673 5676 5682 5689 5697 5706 5713
5848 5843 5839 5835 5829 5824 5819 5813 5808 5804 5799 5794 5787 5780 5774 5767 5761 5755 5750 5743 5735 5727 5719 5711 5702 5692 5683 5674 5666 5658 5650 5647 5645 5643 5640 5649 5652 5656 5662 5671 5682 5691 5700
5844 5840 5835 5830 5824 5818 5812 5808 5804 5799 5793 5785 5778 5772 5765 5758 5751 5744 5738 5730 5721 5711 5703 5694 5685 5673 5661 5648 5639 5635 5630 5628 5626 5626 5623 5630 5633 5636 5644 5654 5666 5676 5686
5840 5836 5831 5824 5818 5812 5808 5803 5798 5792 5785 5778 5770 5763 5755 5748 5741 5735 5726 5717 5706 5697 5686 5675 5663 5650 5638 5626 5619 5613 5611 5611 5609 5608 5607 5614 5614 5620 5628 5638 5650 5662 5671
5836 5831 5826 5819 5814 5809 5803 5797 5791 5785 5777 5770 5762 5753 5746 5739 5731 5723 5714 5704 5693 5682 5669 5654 5640 5627 5615 5607 5602 5598 5596 5595 5594 5593 5594 5599 5601 5608 5615 5624 5635 5647 5656
5831 5826 5820 5815 5810 5804 5797 5791 5784 5777 5770 5761 5753 5744 5736 5728 5719 5711 5702 5691 5679 5665 5652 5636 5619 5607 5598 5592 5588 5584 5582 5582 5581 5580 5582 5587 5591 5597 5604 5612 5621 5634 5647
5827 5821 5815 5810 5804 5797 5790 5784 5777 5770 5761 5752 5743 5734 5725 5717 5708 5699 5688 5675 5661 5647 5632 5616 5603 5593 5586 5581 5577 5573 5570 5570 5569 5569 5571 5575 5581 5587 5594 5603 5612 5623 5635
5821 5815 5809 5804 5796 5789 5782 5775 5768 5760 5751 5742 5732 5724 5715 5706 5696 5685 5673 5659 5645 5630 5614 5601 5592 5583 5576 5571 5567 5563 5561 5560 5559 5559 5562 5567 5571 5578 5585 5593 5602 5612 5623
5815 5808 5803 5796 5790 5783 5775 5768 5759 5750 5742 5733 5723 5713 5704 5694 5683 5670 5658 5644 5628 5613 5600 5591 5583 5575 5568 5563 5559 5555 5552 5551 5551 5551 5554 5558 5562 5569 5577 5586 5594 5603 5612
5809 5803 5797 5790 5783 5775 5767 5759 5752 5744 5734 5723 5713 5703 5693 5682 5669 5656 5642 5627 5612 5599 5590 5582 5575 5568 5561 5554 5550 5546 5543 5542 5542 5543 5546 5549 5554 5561 5569 5578 5586 5593 5602
5804 5797 5791 5784 5776 5768 5759 5751 5743 5733 5723 5713 5703 5692 5681 5670 5656 5642 5628 5612 5598 5589 5581 5572 5564 5556 5551 5545 5541 5537 5534 5533 5534 5535 5537 5541 5546 5551 5559 5569 5576 5583 5594
5799 5792 5785 5777 5769 5760 5752 5743 5734 5723 5712 5702 5692 5682 5670 5656 5643 5629 5614 5599 5588 5579 5571 5562 5553 5546 5540 5535 5531 5528 5524 5524 5525 5525 5529 5532 5536 5542 5548 5557 5565 5574 5583
5793 5786 5778 5770 5762 5753 5744 5735 5725 5714 5703 5692 5682 5670 5658 5644 5630 5614 5600 5587 5578 5569 5559 5550 5543 5537 5531 5526 5522 5519 5516 5512 5515 5515 5518 5522 5527 5531 5539 5547 5554 5561 5571
5787 5779 5771 5763 5755 5745 5735 5726 5714 5704 5692 5681 5670 5657 5645 5631 5617 5602 5588 5577 5568 5558 5549 5541 5534 5527 5521 5514 5510 5507 5505 5503 5502 5503 5504 5509 5516 5521 5528 5536 5543 5551 5560
5781 5773 5764 5756 5746 5738 5727 5716 5706 5695 5683 5672 5659 5646 5632 5619 5604 5590 5578 5566 5556 5547 5538 5530 5522 5514 5508 5502 5496 5491 5486 5487 5488 5492 5489 5494 5501 5508 5515 5524 5533 5542 5548
5775 5766 5757 5748 5738 5729 5719 5708 5696 5685 5674 5662 5649 5636 5621 5607 5593 5580 5568 5557 5546 5536 5526 5518 5509 5501 5493 5487 5480 5476 5471 5467 5468 5472 5476 5477 5484 5493 5502 5511 5520 5529 5537
5768 5759 5750 5740 5730 5720 5709 5699 5688 5677 5664 5652 5639 5625 5610 5596 5582 5570 5558 5547 5537 5525 5515 5506 5497 5487 5479 5472 5466 5461 5457 5454 5450 5451 5456 5460 5468 5476 5486 5496 5507 5517 5525